Weather History for Glenwood, MN

Change the Weather History Date:

Tuesday, May 22, 2012

  Actual Average Record
Temperature  
Mean Temperature 70 °F -  
Max Temperature 84 °F 70 °F 87 °F (1980)
Min Temperature 55 °F 48 °F 31 °F (1963)
Cooling Degree Days 4    
Growing Degree Days 20 (Base 50)    
Moisture  
Dew Point 43 °F    
Average Humidity 40    
Maximum Humidity 67    
Minimum Humidity 26    
Precipitation  
Precipitation 0.00 in - - ()
Sea Level Pressure  
Sea Level Pressure 29.77 in    
Wind  
Wind Speed 16 mph (SSE)    
Max Wind Speed 29 mph    
Max Gust Speed 38 mph    
Visibility 10 miles    
Events      
Averages and records for this station are not official NWS values.
T = Trace of Precipitation, MM = Missing Value Source: NWS Daily Summary

Daily Weather History Graph

Daily Weather History Graph

Search for Another Location

Airport:

Trip Planner

Search our weather history database for the weather conditions in past years. The results will help you decide how hot, cold, wet, or windy it might be!

Date:

Astronomy

May. 22, 2012 Rise Set
Actual Time 5:42 AM CDT 8:54 PM CDT
Civil Twilight 5:06 AM CDT 9:30 PM CDT
Nautical Twilight 4:20 AM CDT 10:16 PM CDT
Astronomical Twilight 3:23 AM CDT 11:14 PM CDT
Moon 6:52 AM CDT (5/22) 10:33 PM CDT (5/22)
Length of Visible Light 16h 23m
Length of Day
15h 11m
Waxing Crescent, 3% of the Moon is Illuminated
May 22
Waxing Crescent
May 28
First Quarter
Jun 4
Full
Jun 11
Last Quarter
Jun 19
New

Hourly Weather History & Observations

Time (CDT) Temp. Dew Point Humidity Pressure Visibility Wind Dir Wind Speed Gust Speed Precip Events Conditions
12:13 AM 57.2 °F 44.6 °F 63% 30.03 in 10.0 mi SE 9.2 mph - N/A   Clear
12:33 AM 55.4 °F 44.6 °F 67% 30.02 in 10.0 mi SE 8.1 mph - N/A   Clear
12:53 AM 55.4 °F 44.6 °F 67% 30.01 in 10.0 mi ESE 6.9 mph - N/A   Clear
1:14 AM 55.4 °F 44.6 °F 67% 30.00 in 10.0 mi SE 6.9 mph - N/A   Clear
1:33 AM 55.4 °F 44.6 °F 67% 29.99 in 10.0 mi SE 10.4 mph - N/A   Clear
1:53 AM 55.4 °F 44.6 °F 67% 29.99 in 10.0 mi SE 11.5 mph - N/A   Clear
2:13 AM 55.4 °F 42.8 °F 63% 29.97 in 10.0 mi SE 13.8 mph - N/A   Clear
2:34 AM 57.2 °F 42.8 °F 59% 29.98 in 10.0 mi SE 11.5 mph - N/A   Clear
2:53 AM 57.2 °F 42.8 °F 59% 29.98 in 10.0 mi SE 8.1 mph - N/A   Clear
3:13 AM 57.2 °F 42.8 °F 59% 29.97 in 10.0 mi SE 10.4 mph - N/A   Clear
3:33 AM 57.2 °F 42.8 °F 59% 29.97 in 10.0 mi SE 11.5 mph - N/A   Clear
3:53 AM 57.2 °F 42.8 °F 59% 29.96 in 10.0 mi SE 9.2 mph - N/A   Clear
4:13 AM 57.2 °F 42.8 °F 59% 29.96 in 10.0 mi SE 6.9 mph - N/A   Clear
4:33 AM 57.2 °F 41.0 °F 55% 29.95 in 10.0 mi SE 9.2 mph - N/A   Clear
4:53 AM 55.4 °F 41.0 °F 58% 29.94 in 10.0 mi SE 8.1 mph - N/A   Clear
5:13 AM 55.4 °F 41.0 °F 58% 29.94 in 10.0 mi SE 8.1 mph - N/A   Clear
5:33 AM 57.2 °F 42.8 °F 59% 29.93 in 10.0 mi SE 10.4 mph - N/A   Clear
5:54 AM 57.2 °F 42.8 °F 59% 29.92 in 10.0 mi SE 11.5 mph - N/A   Clear
6:13 AM 57.2 °F 41.0 °F 55% 29.91 in 10.0 mi SSE 15.0 mph - N/A   Clear
6:33 AM 59.0 °F 39.2 °F 48% 29.90 in 10.0 mi SSE 18.4 mph 24.2 mph N/A   Clear
6:53 AM 60.8 °F 39.2 °F 45% 29.89 in 10.0 mi SSE 16.1 mph 26.5 mph N/A   Clear
7:13 AM 60.8 °F 39.2 °F 45% 29.90 in 10.0 mi SSE 15.0 mph 24.2 mph N/A   Clear
7:33 AM 62.6 °F 39.2 °F 42% 29.89 in 10.0 mi SSE 19.6 mph 24.2 mph N/A   Clear
7:53 AM 62.6 °F 41.0 °F 45% 29.88 in 10.0 mi South 20.7 mph 24.2 mph N/A   Clear
8:13 AM 62.6 °F 41.0 °F 45% 29.88 in 10.0 mi South 20.7 mph 26.5 mph N/A   Clear
8:33 AM 64.4 °F 42.8 °F 45% 29.87 in 10.0 mi South 18.4 mph 25.3 mph N/A   Clear
8:53 AM 64.4 °F 42.8 °F 45% 29.86 in 10.0 mi South 23.0 mph 29.9 mph N/A   Clear
9:13 AM 66.2 °F 42.8 °F 43% 29.85 in 10.0 mi South 24.2 mph 32.2 mph N/A   Clear
9:33 AM 66.2 °F 42.8 °F 43% 29.84 in 10.0 mi South 24.2 mph 27.6 mph N/A   Clear
9:53 AM 69.8 °F 42.8 °F 38% 29.84 in 10.0 mi South 25.3 mph 31.1 mph N/A   Clear
10:13 AM 69.8 °F 44.6 °F 40% 29.83 in 10.0 mi South 27.6 mph 32.2 mph N/A   Clear
10:33 AM 71.6 °F 44.6 °F 38% 29.82 in 10.0 mi South 28.8 mph 35.7 mph N/A   Clear
10:53 AM 73.4 °F 44.6 °F 36% 29.81 in 10.0 mi South 25.3 mph 34.5 mph N/A   Clear
11:13 AM 73.4 °F 42.8 °F 33% 29.81 in 10.0 mi South 26.5 mph 33.4 mph N/A   Clear
11:33 AM 75.2 °F 44.6 °F 34% 29.80 in 10.0 mi South 23.0 mph 33.4 mph N/A   Clear
11:53 AM 75.2 °F 44.6 °F 34% 29.78 in 10.0 mi South 27.6 mph 33.4 mph N/A   Clear
12:13 PM 77.0 °F 44.6 °F 32% 29.78 in 10.0 mi South 23.0 mph 35.7 mph N/A   Clear
12:34 PM 78.8 °F 44.6 °F 30% 29.77 in 10.0 mi South 27.6 mph 32.2 mph N/A   Clear
12:53 PM 78.8 °F 44.6 °F 30% 29.75 in 10.0 mi South 26.5 mph 33.4 mph N/A   Clear
1:13 PM 78.8 °F 46.4 °F 32% 29.74 in 10.0 mi South 23.0 mph 31.1 mph N/A   Clear
1:33 PM 80.6 °F 46.4 °F 30% 29.73 in 10.0 mi South 24.2 mph 33.4 mph N/A   Clear
1:53 PM 80.6 °F 44.6 °F 28% 29.72 in 10.0 mi South 24.2 mph 29.9 mph N/A   Clear
2:13 PM 82.4 °F 44.6 °F 26% 29.71 in 10.0 mi South 23.0 mph 28.8 mph N/A   Clear
2:33 PM 82.4 °F 44.6 °F 26% 29.70 in 10.0 mi South 26.5 mph 31.1 mph N/A   Clear
2:53 PM 82.4 °F 44.6 °F 26% 29.70 in 10.0 mi South 25.3 mph 33.4 mph N/A   Clear
3:14 PM 82.4 °F 44.6 °F 26% 29.69 in 10.0 mi South 21.9 mph 32.2 mph N/A   Clear
3:33 PM 82.4 °F 44.6 °F 26% 29.68 in 10.0 mi SSE 24.2 mph 28.8 mph N/A   Clear
3:53 PM 82.4 °F 44.6 °F 26% 29.67 in 10.0 mi South 20.7 mph 29.9 mph N/A   Clear
4:13 PM 82.4 °F 44.6 °F 26% 29.66 in 10.0 mi South 24.2 mph 32.2 mph N/A   Clear
4:33 PM 82.4 °F 46.4 °F 28% 29.65 in 10.0 mi South 23.0 mph 31.1 mph N/A   Clear
4:53 PM 82.4 °F 46.4 °F 28% 29.64 in 10.0 mi South 20.7 mph 25.3 mph N/A   Clear
5:13 PM 82.4 °F 46.4 °F 28% 29.63 in 10.0 mi South 21.9 mph - N/A   Clear
5:33 PM 84.2 °F 46.4 °F 27% 29.63 in 10.0 mi South 19.6 mph 31.1 mph N/A   Clear
5:53 PM 82.4 °F 46.4 °F 28% 29.62 in 10.0 mi SSE 24.2 mph 33.4 mph N/A   Clear
6:13 PM 82.4 °F 46.4 °F 28% 29.60 in 10.0 mi SSE 19.6 mph 28.8 mph N/A   Clear
6:33 PM 82.4 °F 46.4 °F 28% 29.60 in 10.0 mi South 20.7 mph 33.4 mph N/A   Clear
6:53 PM 80.6 °F 48.2 °F 32% 29.59 in 10.0 mi South 17.3 mph 21.9 mph N/A   Clear
7:13 PM 80.6 °F 46.4 °F 30% 29.58 in 10.0 mi South 21.9 mph 29.9 mph N/A   Clear
7:33 PM 80.6 °F 46.4 °F 30% 29.58 in 10.0 mi South 20.7 mph 25.3 mph N/A   Clear
7:53 PM 80.6 °F 44.6 °F 28% 29.58 in 10.0 mi SSE 25.3 mph 31.1 mph N/A   Clear
8:14 PM 78.8 °F 44.6 °F 30% 29.58 in 10.0 mi South 24.2 mph 31.1 mph N/A   Clear
8:34 PM 77.0 °F 46.4 °F 34% 29.57 in 10.0 mi SSE 18.4 mph - N/A   Clear
8:53 PM 77.0 °F 44.6 °F 32% 29.55 in 10.0 mi SSE 25.3 mph 33.4 mph N/A   Clear
9:13 PM 75.2 °F 44.6 °F 34% 29.57 in 10.0 mi SSE 17.3 mph 26.5 mph N/A   Clear
9:33 PM 75.2 °F 41.0 °F 29% 29.56 in 10.0 mi SSE 20.7 mph 25.3 mph N/A   Clear
9:53 PM 75.2 °F 41.0 °F 29% 29.57 in 10.0 mi SSE 18.4 mph 28.8 mph N/A   Clear
10:14 PM 75.2 °F 41.0 °F 29% 29.57 in 10.0 mi SSE 17.3 mph 28.8 mph N/A   Clear
10:33 PM 75.2 °F 39.2 °F 27% 29.57 in 10.0 mi SSE 20.7 mph 25.3 mph N/A   Clear
10:53 PM 75.2 °F 39.2 °F 27% 29.57 in 10.0 mi SSE 19.6 mph 27.6 mph N/A   Clear
11:13 PM 75.2 °F 39.2 °F 27% 29.57 in 10.0 mi SSE 23.0 mph 32.2 mph N/A   Clear
11:33 PM 75.2 °F 39.2 °F 27% 29.56 in 10.0 mi SSE 23.0 mph 31.1 mph N/A   Clear
11:53 PM 73.4 °F 37.4 °F 27% 29.52 in 10.0 mi SSE 28.8 mph 38.0 mph N/A   Clear